Zurück zum Katalog

COSMOS 2499 DEB

AktivPO
NORAD 60613·DEBRIS·🇷🇺 Russia

Gestartet May 23, 2014 von Plesetsk Cosmodrome

Loading…

Nächste Überflüge (nächste 24 Stunden)

TLE

VeraltetSource: Space-Track

Epoche: Aug 25, 2026, 02:45 UTC

1 60613U 14028BZ  26237.11463879  .00002908  00000-0  86762-2 0  9990
2 60613  82.4803 191.7800 0255618 110.1586 252.7218 12.96728727155805

Verfolge COSMOS 2499 DEB in Echtzeit mit AllMySat

Download on the App Store